This is the latest recevied weather packets stored in our database for station/object N8HON. If no packets are shown the sender has not sent any weather packets the latest 10 day(s).
| Time | Temp. | Humidity | Pressure | Rain* | Wind** | Luminosity | Snow |
|---|---|---|---|---|---|---|---|
| 1777647001 | 13.33° C | 53% | 1012.1 hPa | 0 mm | - | 571 W/m² | - |
| 1777646696 | 12.78° C | 57% | 1012.3 hPa | 0 mm | - | 581 W/m² | - |
| 1777646392 | 12.78° C | 54% | 1012.3 hPa | 0 mm | - | 418 W/m² | - |
| 1777646089 | 12.22° C | 56% | 1012.3 hPa | 0 mm | - | 301 W/m² | - |
| 1777645785 | 11.67° C | 57% | 1012.4 hPa | 0 mm | - | 417 W/m² | - |
| 1777645483 | 12.22° C | 60% | 1012.4 hPa | 0 mm | - | 483 W/m² | - |
| 1777645178 | 12.22° C | 56% | 1012.7 hPa | 0 mm | - | 493 W/m² | - |
| 1777644874 | 11.67° C | 55% | 1012.3 hPa | 0 mm | - | 657 W/m² | - |
| 1777644573 | 11.67° C | 62% | 1012.2 hPa | 0 mm | - | 517 W/m² | - |
| 1777644268 | 11.11° C | 57% | 1012.5 hPa | 0 mm | - | 473 W/m² | - |
| 1777643965 | 10.56° C | 62% | 1012.5 hPa | 0 mm | - | 498 W/m² | - |
| 1777643662 | 10° C | 68% | 1012.9 hPa | 0 mm | - | 355 W/m² | - |
| 1777643359 | 9.44° C | 71% | 1012.6 hPa | 0 mm | - | 435 W/m² | - |
| 1777643056 | 9.44° C | 73% | 1012.9 hPa | 0 mm | - | 388 W/m² | - |
| 1777642753 | 8.89° C | 76% | 1012.7 hPa | 0 mm | - | 347 W/m² | - |
| 1777642450 | 8.89° C | 76% | 1012.9 hPa | 0 mm | - | 354 W/m² | - |
| 1777642146 | 8.33° C | 75% | 1012.9 hPa | 0 mm | - | 302 W/m² | - |
| 1777641844 | 7.78° C | 75% | 1012.9 hPa | 0 mm | - | 276 W/m² | - |
| 1777641538 | 7.78° C | 77% | 1013 hPa | 0 mm | - | 220 W/m² | - |
| 1777641238 | 7.78° C | 78% | 1012.8 hPa | 0 mm | - | 219 W/m² | - |
| 1777640935 | 7.78° C | 79% | 1013 hPa | 0 mm | - | 175 W/m² | - |
| 1777640632 | 7.22° C | 81% | 1013 hPa | 0 mm | - | 193 W/m² | - |
| 1777640328 | 6.67° C | 83% | 1012.8 hPa | 0 mm | - | 188 W/m² | - |
| 1777640024 | 6.67° C | 81% | 1012.9 hPa | 0 mm | - | 186 W/m² | - |
| 1777639722 | 6.11° C | 85% | 1013 hPa | 0 mm | - | 177 W/m² | - |
* Rain latest hour (hover to see other rain measurements)
** Current wind speed in m/s (hover to see current wind gust speed)